Simultaneous Nadir Overpasses (SNOs) Predictions

Prediction of SNOs between METOP-B and TERRA Satellite Orbit:

Table of predicted SNOs for the next 14.0 days since TLE Epoch: 10/6/2018
Index Date (METOP-B) Time (METOP-B) Lat,Lon (METOP-B) SZA (METOP-B ) Date (TERRA) Time (TERRA) Lat,Lon (TERRA) SZA (TERRA ) Distance(km) Time Diff (sec)
1 10/06/2018 15:39:25 81.31, -7.69 89.65 10/06/2018 15:39:31 81.31, -7.58 89.66 1.86 6
2 10/06/2018 16:30:05 -81.32, 160.14 90.28 10/06/2018 16:28:58 -81.31, 159.98 90.34 2.93 67
3 10/09/2018 10:23:07 -81.31,-108.79 89.30 10/09/2018 10:24:18 -81.32,-108.67 89.25 2.15 71
4 10/09/2018 11:13:46 81.32, 59.03 90.77 10/09/2018 11:13:44 81.32, 59.03 90.78 0.44 2
5 10/12/2018 05:57:29 -81.31, -42.46 88.24 10/12/2018 05:58:32 -81.31, -42.42 88.20 0.82 63
6 10/12/2018 06:48:08 81.32, 125.35 91.84 10/12/2018 06:47:58 81.31, 125.25 91.82 1.84 10
7 10/15/2018 01:31:49 -81.31, 24.24 87.14 10/15/2018 01:32:44 -81.32, 24.21 87.11 0.69 55
8 10/15/2018 02:22:29 81.32,-168.34 92.89 10/15/2018 02:22:10 81.32,-168.14 92.91 3.25 19
9 10/17/2018 21:06:11 -81.31, 90.54 86.11 10/17/2018 21:06:58 -81.31, 90.45 86.10 1.58 47




NCC Satellite Simultaneous Nadir Overpasses (SNOs) Prediction Service
